TURKSAT 1C

导读 | 豆包AI

TÜRKSAT 1C是土耳其的通信卫星,由阿尔卡特阿莱尼亚航天公司制造,于1996年7月9日由阿里亚娜4型火箭发射升空,发射质量1743kg,设计寿命10-13年,最终定点东经42°轨道位置。卫星搭载16台Ku频段转发器,信号覆盖土耳其、欧洲及中亚地区,为当地提供通信广播服务。它从1996年服务至2010年9月,因Türksat 3A接替而结束任务,实际在轨服役超14年,超出设计使用寿命,完成了土耳其早期卫星通信布局。

基本信息
目录编号:
23949
目录名称:
TURKSAT 1C
国际标识:
1996-040B
轨道中心:
EARTH
卫星名称:
TURKSAT 1C
卫星全名:
--
卫星状态:
在轨 (已飞行10888 天)
发射日期:
1996-07-09 UTC
国别 :
土耳其 (TR)
星等 :
--
轨道信息
数据来源 国际轨道数据 AOE轨道数据
星历时间 2026-05-01T01:07:39+0800
11小时前
查看轨道信息
2026-05-01T03:00:00+0800
9小时前
查看轨道信息
半长轴 42136.83km 42136.97km
偏心率 0.0003142 0.0003071
轨道倾角 11.989° 11.988°
近地点辐角 186.235° 185.525°
升交点赤经 30.547° 30.545°
平近点角 352.953° 21.855°
近地点 35745.453km 35745.892km
远地点 35771.933km 35771.774km
周期 1434.672分钟 1434.679分钟
每日圈数 1.003714 1.003709
详细信息
使用方式:
暂无
2D轨道图
3D轨道图
轨道高度分析图
轨道倾角分析图
轨道综合分析图
查看轨道综合分析图